Location: Saint-Usage
(47.1052°N, 5.2587°E)
Time: 07:11:40
(UTC+02:00)

Envisat - Pass Details

Date: 01 October 2021
Orbit: 764 x 766 km, 98.2° (Epoch: 23 October)

Event Time Altitude Azimuth Distance (km) Brightness Sun altitude
Rises 05:33:57 0° 28° (NNE) 3,241 7.0 -21.6°
Reaches altitude 10° 05:37:05 10° 49° (NE) 2,309 6.5 -21.1°
Maximum altitude 05:40:21 17° 89° (E) 1,861 5.9 -20.5°
Drops below altitude 10° 05:43:37 10° 130° (SE) 2,297 5.9 -20.0°
Sets 05:46:43 0° 150° (SSE) 3,217 6.4 -19.5°
